This demonstration page uses our WeatherBlox Daily Observations layout. Learn more.

41.55636, -103.73856

Hourly Observations for September 20, 2017

Temp ( °F °C ) Dew Point ( °F °C ) Humidity (%) Winds ( mph kmh ) Pressure ( in mb ) Visibility ( mi km ) Precip ( " mm )
12:53 am 00:53 Mostly Cloudy 56 13.3 31 -0.6 39 39 WNW 18 30 29.74 1007 10 16.0934 0 0
1:53 am 01:53 Mostly Clear 54 12.2 32 0 43 43 W 10 17 29.76 1008 10 16.0934 0 0
2:53 am 02:53 Clear 53 11.7 30 -1.1 41 41 W 13 20 29.76 1008 10 16.0934 0 0
3:53 am 03:53 Mostly Clear 49 9.4 33 0.6 55 55 NW 8 13 29.79 1009 10 16.0934 0 0
4:53 am 04:53 Clear 52 11.1 29 -1.7 41 41 W 10 17 29.81 1009 10 16.0934 0 0
5:53 am 05:53 Clear 51 10.6 31 -0.6 46 46 W 7 11 29.86 1011 10 16.0934 0 0
6:53 am 06:53 Sunny 50 10 31 -0.6 48 48 W 10 17 29.86 1011 10 16.0934 0 0
7:53 am 07:53 Sunny 52 11.1 32 0 47 47 NW 13 20 29.87 1012 10 16.0934 0 0
8:53 am 08:53 Sunny 58 14.4 30 -1.1 35 35 WNW 17 28 29.86 1011 10 16.0934 0 0
9:53 am 09:53 Sunny 61 16.1 29 -1.7 30 30 WNW 16 26 29.87 1012 10 16.0934 0 0
10:53 am 10:53 Sunny 66 18.9 26 -3.3 22 22 WNW 16 26 29.85 1011 10 16.0934 0 0
11:53 am 11:53 Sunny 68 20 26 -3.3 21 21 NW 12 19 29.82 1010 10 16.0934 0 0
12:53 pm 12:53 Sunny 70 21.1 28 -2.2 21 21 VRB 6 9 29.79 1009 10 16.0934 0 0
1:53 pm 13:53 Sunny 74 23.3 37 2.8 26 26 S 14 22 29.75 1008 10 16.0934 0 0
2:53 pm 14:53 Sunny 76 24.4 36 2.2 23 23 S 15 24 29.72 1007 10 16.0934 0 0
3:53 pm 15:53 Sunny 76 24.4 33 0.6 21 21 S 16 26 29.72 1006 10 16.0934 0 0
4:53 pm 16:53 Sunny 77 25 33 0.6 20 20 SSE 10 17 29.7 1006 10 16.0934 0 0
5:53 pm 17:53 Sunny 75 23.9 35 1.7 23 23 SSE 9 15 29.7 1006 10 16.0934 0 0
6:53 pm 18:53 Sunny 68 20 35 1.7 30 30 ESE 9 15 29.72 1007 10 16.0934 0 0
7:53 pm 19:53 Clear 60 15.6 39 3.9 46 46 E 10 17 29.75 1008 10 16.0934 0 0
8:53 pm 20:53 Clear 62 16.7 35 1.7 37 37 ESE 15 24 29.74 1007 10 16.0934 0 0
9:53 pm 21:53 Clear 60 15.6 35 1.7 39 39 ESE 16 26 29.74 1007 10 16.0934 0 0
10:53 pm 22:53 Clear 59 15 35 1.7 41 41 ESE 15 24 29.72 1006 10 16.0934 0 0
11:53 pm 23:53 Clear 59 15 35 1.7 41 41 ESE 17 28 29.7 1006 10 16.0934 0 0

Powered by AerisWeather